User: anonymous   Login
Location: Unspecified
(0.0000°N, 0.0000°E)
Time: 15:52:09
(UTC+00:00)
Language:

OV3-3 - Orbit

View from above orbital plane
View from above orbital plane
View from above satellite
View from above satellite

Ground track
Ground track

The orbit data is extracted from the following two-line orbital elements,

1  2389U 66070A   20145.59597913 +.00000829 +00000-0 +45754-4 0  9999
2  2389 081.3895 022.2341 1231337 227.5107 121.5393 12.94439725308344
Epoch (UTC): 24 May 2020 14:18:12
Eccentricity: 0.1231337
inclination: 81.3895°
perigee height: 340 km
apogee height: 2227 km
right ascension of ascending node: 22.2341°
argument of perigee: 227.5107°
revolutions per day: 12.94439725
mean anomaly at epoch: 121.5393°
orbit number at epoch: 30834

The dashed part of the orbit path shows where the satellite is in the earth's shadow,  

DLR